This is the latest recevied weather packets stored in our database for station/object KY0TEQ-13. If no packets are shown the sender has not sent any weather packets the latest 10 day(s).
| Time | Temp. | Humidity | Pressure | Rain* | Wind** | Luminosity | Snow |
|---|---|---|---|---|---|---|---|
| 1788652020 | 27.22° C | 23% | 1307.3 hPa | 0 mm | - | 107 W/m² | - |
| 1788651715 | 26.67° C | 23% | 1307.2 hPa | 0 mm | - | 166 W/m² | - |
| 1788651410 | 26.67° C | 23% | 1307.1 hPa | 0 mm | - | 182 W/m² | - |
| 1788651109 | 27.78° C | 22% | 1307.4 hPa | 0 mm | - | 217 W/m² | - |
| 1788650804 | 26.67° C | 23% | 1307.4 hPa | 0 mm | - | 250 W/m² | - |
| 1788650500 | 26.67° C | 23% | 1307.6 hPa | 0 mm | - | 228 W/m² | - |
| 1788650195 | 26.67° C | 23% | 1307.4 hPa | 0 mm | - | 153 W/m² | - |
| 1788649892 | 26.67° C | 23% | 1307.3 hPa | 0 mm | - | 288 W/m² | - |
| 1788649587 | 27.78° C | 23% | 1307.6 hPa | 0 mm | - | 302 W/m² | - |
| 1788649284 | 27.78° C | 22% | 1307.4 hPa | 0 mm | - | 321 W/m² | - |
| 1788648979 | 27.22° C | 23% | 1307.4 hPa | 0 mm | - | 334 W/m² | - |
| 1788648674 | 27.78° C | 24% | 1307.3 hPa | 0 mm | - | 349 W/m² | - |
| 1788648374 | 26.67° C | 24% | 1307.6 hPa | 0 mm | - | 363 W/m² | - |
| 1788648073 | 27.22° C | 24% | 1307.3 hPa | 0 mm | - | 378 W/m² | - |
| 1788647771 | 27.22° C | 24% | 1307.4 hPa | 0 mm | - | 388 W/m² | - |
| 1788647467 | 27.22° C | 23% | 1307.6 hPa | 0 mm | - | 404 W/m² | - |
| 1788647167 | 27.22° C | 22% | 1307.4 hPa | 0 mm | - | 421 W/m² | - |
| 1788646862 | 27.78° C | 23% | 1307.8 hPa | 0 mm | - | 433 W/m² | - |
| 1788646558 | 26.67° C | 24% | 1307.7 hPa | 0 mm | - | 444 W/m² | - |
| 1788646254 | 27.22° C | 24% | 1307.8 hPa | 0 mm | - | 460 W/m² | - |
| 1788645949 | 27.22° C | 24% | 1307.9 hPa | 0 mm | - | 476 W/m² | - |
| 1788645646 | 27.22° C | 24% | 1307.8 hPa | 0 mm | - | 487 W/m² | - |
| 1788645344 | 27.22° C | 25% | 1307.9 hPa | 0 mm | - | 497 W/m² | - |
| 1788645041 | 27.78° C | 25% | 1307.9 hPa | 0 mm | - | 508 W/m² | - |
| 1788644737 | 27.78° C | 25% | 1307.9 hPa | 0 mm | - | 522 W/m² | - |
* Rain latest hour (hover to see other rain measurements)
** Current wind speed in m/s (hover to see current wind gust speed)